This is the latest recevied weather packets stored in our database for station/object LZ1BAB-WX. If no packets are shown the sender has not sent any weather packets the latest 1 day(s).
| Time | Temp. | Humidity | Pressure | Rain* | Wind** | Luminosity | Snow |
|---|---|---|---|---|---|---|---|
| 1778107508 | 8.89° C | 94% | 1017.3 hPa | 0 mm | - | 0 W/m² | - |
| 1778106668 | 8.89° C | 93% | 1017.3 hPa | 0 mm | - | 0 W/m² | - |
| 1778106188 | 9.44° C | 92% | 1017.3 hPa | 0 mm | - | 0 W/m² | - |
| 1778105109 | 9.44° C | 89% | 1017.4 hPa | 0 mm | - | 0 W/m² | - |
| 1778103908 | 11.11° C | 83% | 1017.5 hPa | 0 mm | - | 0 W/m² | - |
| 1778103668 | 11.11° C | 83% | 1017.5 hPa | 0 mm | - | 0 W/m² | - |
| 1778103548 | 11.11° C | 83% | 1017.4 hPa | 0 mm | - | 0 W/m² | - |
| 1778103428 | 11.11° C | 83% | 1017.7 hPa | 0 mm | - | 0 W/m² | - |
| 1778102228 | 11.67° C | 83% | 1017.7 hPa | 0 mm | - | 0 W/m² | - |
| 1778101508 | 12.22° C | 79% | 1017.4 hPa | 0 mm | - | 0 W/m² | - |
| 1778101268 | 12.22° C | 79% | 1017.5 hPa | 0 mm | - | 0 W/m² | - |
| 1778100428 | 12.22° C | 82% | 1017.7 hPa | 0 mm | - | 0 W/m² | - |
| 1778099828 | 12.78° C | 80% | 1017.5 hPa | 0 mm | - | 0 W/m² | - |
| 1778098268 | 14.44° C | 71% | 1017.4 hPa | 0 mm | - | 0 W/m² | - |
| 1778098148 | 14.44° C | 71% | 1017.3 hPa | 0 mm | - | 0 W/m² | - |
| 1778097908 | 14.44° C | 71% | 1017.4 hPa | 0 mm | - | 0 W/m² | - |
| 1778097788 | 14.44° C | 71% | 1017.3 hPa | 0 mm | - | 0 W/m² | - |
| 1778097549 | 15° C | 70% | 1017.4 hPa | 0 mm | - | 0 W/m² | - |
| 1778097307 | 15° C | 70% | 1017.3 hPa | 0 mm | - | 0 W/m² | - |
| 1778096828 | 15° C | 70% | 1017.5 hPa | 0 mm | - | 0 W/m² | - |
| 1778096348 | 15° C | 68% | 1017.1 hPa | 0 mm | - | 0 W/m² | - |
| 1778096228 | 15.56° C | 69% | 1017.3 hPa | 0 mm | - | 0 W/m² | - |
| 1778096108 | 15.56° C | 68% | 1017.2 hPa | 0 mm | - | 0 W/m² | - |
| 1778095628 | 15.56° C | 68% | 1017.2 hPa | 0 mm | - | 0 W/m² | - |
| 1778095507 | 15.56° C | 68% | 1017.4 hPa | 0 mm | - | 0 W/m² | - |
* Rain latest hour (hover to see other rain measurements)
** Current wind speed in m/s (hover to see current wind gust speed)